Weather Roundup
Issued by NWS

Home | Current Version | Previous Version | Graphics & Text | Print | Product List | Glossary Off
Versions: 1 2 3 4 5 6 7 8 9 10 11 12 13 14 15 16 17 18 19 20 21 22 23 24 25 26 27 28 29 30 31 32 33 34 35 36 37 38 39 40 41 42 43 44 45 46 47 48 49 50

720
NZUS93 KARX 232259
HRRWXR

CURRENT HOURLY OBSERVATIONS ACROSS
MUCH OF THE UPPER MISSISSIPPI VALLEY
NATIONAL WEATHER SERVICE LA CROSSE WI
500 PM CST THU NOV 23 2017


...SOUTHEAST MINNESOTA...


CITY           SKY/WX    TMP DP  RH WIND       PRES   REMARKS
ROCHESTER      CLEAR     37  26  64 S8        29.83F WCI  31
ROCHESTER/MAYO FAIR      44  27  50 SW5       29.84F
WINONA         CLEAR     36  27  69 CALM      29.86R
AUSTIN         NOT AVBL
ALBERT LEA     CLEAR     43  25  49 S7        29.82F
DODGE CENTER   CLEAR     37  25  60 S8        29.82F WCI  31
PRESTON        CLEAR     40  24  54 SW6       29.85F
OWATONNA       CLEAR     41  28  60 S6        29.81F
FARIBAULT      CLEAR     43  28  56 S6        29.80F
$$

...ELSEWHERE IN MINNESOTA...


CITY           SKY/WX    TMP DP  RH WIND       PRES   REMARKS
MINNEAPOLIS    PTCLDY    42  26  53 S8        29.78F
INTNL FALLS    CLOUDY    30  22  72 SE7       29.59F WCI  23
DULUTH         CLOUDY    34  25  69 S8        29.70F WCI  27
RED WING       CLEAR     37  19  48 SE3       29.82F
REDWOOD FALLS  CLEAR     45  29  53 S10       29.73F
MANKATO        CLEAR     43  28  55 S8        29.79F
WORTHINGTON    CLOUDY    50  34  54 SW14      29.77F
FAIRMONT       CLOUDY    43  30  60 S12       29.80F
$$

...SOUTHWEST WISCONSIN...


CITY           SKY/WX    TMP DP  RH WIND       PRES   REMARKS
LA CROSSE      CLEAR     40  23  50 S5        29.85F
PRAIRIE DU CHI CLEAR     44  22  41 CALM      29.88F
BOSCOBEL       CLEAR     36  23  59 CALM      29.88F
LONE ROCK      NOT AVBL
PLATTEVILLE    CLEAR     40  26  56 SW3       29.90F
FORT MC COY    CLEAR     38  23  55 CALM      29.87F
CAMP DOUGLAS   CLEAR     33  21  61 CALM      29.85F
MAUSTON-NEW LI CLEAR     36  23  60 CALM      29.86S
VIROQUA        FAIR      38  25  59 S5        29.85F WCI  34
WIS DELLS      CLEAR     39  21  48 CALM      29.87S
$$

...ELSEWHERE IN WISCONSIN...


CITY           SKY/WX    TMP DP  RH WIND       PRES   REMARKS
MILWAUKEE      PTCLDY    42  24  49 SW6       29.91S
MADISON        CLEAR     38  22  52 CALM      29.88F
GREEN BAY      CLEAR     37  24  59 S5        29.86F WCI  33
EAU CLAIRE     NOT AVBL
BLACK RVR FLS  FAIR      38  19  47 CALM      29.84F
MEDFORD        CLEAR     32  21  63 S5        29.79F WCI  28
WAUSAU         CLEAR     35  22  58 S3        29.81F
WIS RAPIDS     CLOUDY    34  21  59 S5        29.86S WCI  30
MARSHFIELD     CLOUDY    34  21  59 S7        29.80F WCI  28
RICE LAKE      CLEAR     38  23  54 SE5       29.81F WCI  34
$$

...NORTHEAST IOWA...


CITY           SKY/WX    TMP DP  RH WIND       PRES   REMARKS
WATERLOO       CLEAR     40  26  57 S3        29.88F
DUBUQUE        CLEAR     40  26  57 CALM      29.90F
DECORAH        CLEAR     41  25  52 SW6       29.85F
MASON CITY     CLEAR     40  27  59 S6        29.86F
CHARLES CITY   CLEAR     39  25  56 S7        29.87S WCI  34
OELWEIN        CLEAR     37  27  65 S6        29.88F WCI  33
$$

...ELSEWHERE IN IOWA...


CITY           SKY/WX    TMP DP  RH WIND       PRES   REMARKS
DES MOINES     PTCLDY    50  32  50 S6        29.90F
IOWA CITY      CLEAR     44  28  53 CALM      29.92F
FORT DODGE     CLEAR     50  32  50 S8        29.85F
MARSHALLTOWN   CLOUDY    46  30  53 SW6       29.88S
CEDAR RAPIDS   CLEAR     43  29  57 CALM      29.90S
$$

...NORTHERN ILLINOIS...


CITY           SKY/WX    TMP DP  RH WIND       PRES   REMARKS
CHICAGO-OHARE  PTCLDY    42  25  50 W3        29.92R
CHICAGO-MIDWAY NOT AVBL
MOLINE         CLEAR     40  26  57 CALM      29.93R
ROCKFORD       PTCLDY    41  24  51 CALM      29.94R
PEORIA         CLEAR     43  26  51 SW5       29.95R
$$

NOTE: "FAIR" INDICATES FEW OR NO CLOUDS BELOW 12,000 FEET WITH NO
SIGNIFICANT WEATHER AND/OR OBSTRUCTIONS TO VISIBILITY. WIND
SPEEDS ARE IN MILES-PER-HOUR.




USA.gov is the U.S. government's official web portal to all federal, state and local government web resources and services.